CAPE
8 5 0 0 6 46 52 14 107 56 35 107 2 170 785 284 1192 1120 770 875 910 954 1267 1252 462 170 323 311 178 699 645 3 586 8 0 469 50 178 332 540 848 967 1006 917 1114 1404 1851 2201 2697 2698 2734 2779 2806 2893 2847 2860 2812 2686 2671 2726 2809 2888 2805 2880 3115 3028 2924 2903 3008 3148 2974 2873 2809 2808 2489 2468 2717 2686 2571 2574 2548 2816 2605 2446 2861 2754 2968 3055 2861 2824 2631 2427 2464 2479 2338 2328 2105
4 53 0 0 67 1 104 55 48 101 158 101 66 13 428 984 755 829 715 906 955 1200 1139 735 676 996 973 564 242 312 142 570 930 408 110 98 170 316 459 763 919 1082 1174 1133 1226 1390 1661 2424 2815 2741 2769 2748 2772 2831 2926 2851 2750 2808 2887 2947 3000 2938 2888 2691 3213 2950 2961 2914 2898 2917 3047 3031 3030 2926 2850 2671 2634 2574 2482 2446 2519 2778 2711 2646 2820 2732 2602 2806 2751 2875 2830 2837 2241 2254 2110 2056 1977
3 0 61 5 1 247 197 66 226 208 69 4 0 42 873 713 720 974 1108 1365 1628 1072 1022 719 929 952 808 467 842 980 95 674 340 141 235 209 230 334 567 859 1040 1274 1385 1244 1417 1641 1878 2501 2906 2943 2780 2729 2787 2818 2927 2935 3035 3006 3013 3007 2873 3003 2969 3193 3012 2864 2631 2966 2800 2819 2992 3006 2938 2762 2684 2604 2637 2596 2474 2649 2756 2622 2549 2647 2774 2490 2522 2977 2931 2911 2925 2397 2327 2248 2076 1874 2034
2 62 182 66 34 47 274 286 347 141 81 4 0 2 428 797 990 1317 1334 1170 937 815 695 636 603 552 847 495 584 680 279 404 158 111 92 186 54 422 631 953 1388 1389 1408 1518 1709 1809 2030 2350 2931 3034 2789 2699 2743 2851 2953 2974 2958 2925 2941 2812 2857 2987 2844 3136 3021 2765 2909 2409 2656 2953 2952 2811 2801 2700 2675 2623 2590 2548 2513 2697 2676 2706 2641 2802 2805 2665 2495 2907 3083 2936 2557 2730 2752 2264 2165 2295 2261
9 11 199 35 390 554 367 783 644 707 222 2 35 188 833 765 921 1149 1014 822 789 829 563 573 521 539 516 667 522 525 325 433 145 168 68 314 359 476 695 1113 1333 1397 1440 1585 1766 1927 2160 2719 3012 2829 2769 2479 2731 2971 2852 2903 2913 2916 2885 2928 2806 2777 3016 3121 3044 2912 2828 2791 2837 2808 2718 2876 2893 2868 2799 2635 2556 2505 2432 2629 2583 2583 2554 2610 2569 2574 2611 2722 3148 2883 2750 2445 2539 2488 2472 2366 2264
496 409 74 360 645 693 507 271 401 288 197 242 85 178 923 1305 932 795 800 946 811 697 628 535 527 577 538 452 460 631 449 360 212 201 125 382 446 466 867 1235 1355 1497 1667 1689 1833 2058 2302 2777 2804 2768 2721 2607 2807 2957 2812 2827 2980 2936 2779 2792 2942 2917 3068 3082 2931 2810 2618 2522 2595 2614 2881 3069 2847 2761 2559 2551 2556 2528 2486 2464 2246 2237 2295 2356 2558 2436 2451 2454 2935 3007 2842 2543 2152 2000 2309 2318 2062
240 14 76 273 515 749 728 370 6 67 665 414 258 1154 976 1378 783 798 621 618 704 616 696 612 587 404 678 600 380 470 232 516 197 123 286 439 416 619 933 1190 1400 1638 1800 1895 1976 2110 2381 2656 2669 2626 2849 2541 2767 2784 2757 2882 2946 2859 2871 3052 3052 3083 3159 2970 2949 2741 2606 2643 2731 2685 2900 2818 2676 2600 2570 2614 2477 2480 2403 2326 2394 2392 2510 2553 2552 2391 2188 2347 2433 2946 2720 2507 2323 1998 2083 2137 2175
214 822 439 553 619 793 584 424 197 96 537 412 632 1163 1522 1174 804 603 567 571 538 573 540 643 633 636 563 660 561 484 660 411 216 381 447 418 471 698 908 1199 1445 1638 1809 1914 2016 2150 2398 2591 2544 2413 2766 2610 2764 2778 2850 2844 2842 2822 2713 2724 2575 2948 3131 2890 2705 2506 2612 2583 2668 2779 2726 2929 2771 2703 2617 2635 2493 2382 2438 2384 2298 2391 2442 2162 2261 2119 1844 2480 2614 2906 2696 2386 2152 1997 1890 1861 2006
171 686 797 878 650 369 304 281 196 114 193 396 527 1178 1669 1132 859 588 698 514 557 548 614 665 782 615 459 626 709 580 527 505 489 548 436 402 523 685 917 1197 1444 1639 1755 1918 2068 2220 2578 2491 2479 2596 2760 2690 2669 2855 2788 2744 2855 2526 2834 2654 2874 3111 3003 2711 2575 2582 2524 2530 2820 2760 2559 2748 2621 2594 2584 2537 2440 2504 2489 2442 2374 2407 2382 2380 2085 2194 2311 2384 2365 2608 2650 2312 2110 1936 1963 2041 2094
850 651 916 682 529 382 45 0 1 3 211 859 758 1550 1126 1043 1030 862 478 491 583 589 656 694 807 757 530 696 610 599 525 545 494 421 390 410 520 656 901 1201 1445 1614 1737 1930 2104 2346 2594 2430 2691 2763 2796 2904 2715 2844 2776 2773 2740 2730 2877 2939 2978 3083 2834 2777 2675 2626 2637 2850 2669 2557 2534 2542 2272 2579 2706 2679 2604 2672 2660 2486 2551 2404 2412 2364 2284 2546 2431 2263 2309 2888 2911 2144 2048 1830 1902 1913 1791
1004 614 866 879 649 78 0 0 13 50 479 1034 1277 1646 1155 1030 835 792 878 436 496 597 634 682 778 616 499 508 532 754 591 482 448 416 386 410 480 633 906 1212 1445 1592 1730 1937 2187 2411 2701 2796 2960 2944 2755 2836 2786 2776 2792 2743 2575 2661 2618 2874 3068 2898 2831 2770 2722 2742 2843 2842 2779 2659 2666 2744 2649 2649 2747 2843 2936 2825 2740 2711 2530 2604 2579 2606 2805 3022 2841 2456 2483 2905 2754 2522 2048 1940 1824 1806 1802
924 696 956 577 438 4 0 10 98 147 338 463 952 1290 1292 951 818 652 555 556 534 569 584 574 580 414 407 406 496 694 463 467 423 398 406 395 451 648 925 1210 1411 1567 1765 1983 2295 2394 2677 2750 2934 2977 2821 2839 2929 2874 2803 2776 2760 2904 2838 3155 2956 2878 2965 2764 2802 2808 2842 2670 2617 2607 2627 2698 2715 2802 2662 2896 3064 2929 2932 2831 2810 2842 2888 2923 2885 2872 2689 2878 2837 2884 2772 2788 2556 2090 1923 1788 2000
1086 683 797 394 422 66 33 262 97 469 43 166 588 1054 1116 736 703 803 690 576 530 484 454 376 371 264 245 440 643 578 531 460 441 403 380 357 459 681 949 1187 1399 1620 1809 2130 2285 2441 2642 2686 2662 2795 2464 2926 3019 2955 2740 2889 3066 3140 3201 3043 2874 2940 2759 2647 2699 2775 2700 2577 2623 2532 2518 2719 2589 2577 2695 2844 3035 3041 2992 2995 2974 2943 2969 2956 2912 2531 2706 2700 2552 2545 2518 2685 2625 2416 1937 2371 2202
1251 931 883 691 387 419 486 488 146 342 9 13 496 904 1005 686 896 960 740 609 514 422 385 353 392 374 441 448 493 404 489 473 470 393 322 353 501 728 1007 1226 1491 1704 1943 2116 2256 2458 2594 2652 2545 2571 2532 2670 2822 2808 2730 2910 3024 3163 3096 2972 2903 2795 2601 2620 2680 2648 2573 2579 2552 2540 2622 2704 2667 2716 2791 2866 2824 2826 2916 2926 2802 2956 2951 2686 2505 2894 2744 2756 2172 2235 2625 2640 2606 2625 2697 2255 2183
991 852 773 535 526 484 405 430 80 110 32 232 699 766 762 647 1042 764 635 546 542 509 474 444 339 179 294 462 335 411 506 507 456 369 327 394 579 850 1096 1332 1587 1859 2021 2112 2267 2470 2555 2569 2514 2450 2215 2497 2687 2784 2532 2798 3002 3254 3097 3060 2832 2777 2573 2658 2639 2663 2682 2655 2542 2603 2544 2616 2717 2350 2413 2395 2334 2379 2750 2855 2726 2752 2615 2693 2266 2403 2594 2724 2675 2501 2332 2579 2475 2643 2767 2764 2371
1186 1200 962 740 521 311 184 116 25 26 27 335 803 684 680 635 839 498 486 550 687 532 584 621 305 553 221 403 331 436 505 500 442 347 340 473 739 970 1166 1435 1715 1946 2040 2132 2306 2449 2516 2432 2451 2395 2140 2526 2651 2765 2544 2546 2856 3084 3209 3141 2930 2794 2669 2589 2710 2768 2705 2598 2658 2708 2540 2844 2594 2389 2236 2341 2579 2516 2298 2595 2336 2440 2468 2678 2526 2678 2735 2858 2845 2727 2684 2521 2404 2051 2320 2592 2354
1314 1449 891 665 336 155 115 90 20 57 0 517 666 596 597 502 608 453 471 462 555 603 614 474 384 553 348 313 354 480 500 477 411 310 381 634 867 992 1185 1424 1699 1876 2028 2166 2294 2396 2438 2370 2432 2347 2219 2569 2682 2739 2699 2588 2944 3037 3170 3126 2966 2801 2564 2653 2727 2791 2615 2437 2719 2787 3076 2684 2552 2541 2559 2589 2313 2912 2428 2170 2536 2489 2574 2747 2276 2508 2824 2831 2727 2713 2457 2710 2373 2484 2486 2634 2487
1545 888 647 508 464 215 86 155 2 0 93 511 598 518 520 502 463 500 729 550 568 568 751 492 512 400 407 333 434 474 474 448 331 302 480 752 839 942 1067 1292 1527 1638 1851 2136 2350 2306 2350 2314 2398 2271 2362 2576 2615 2652 2722 2593 2793 3038 2898 2785 3039 2678 2569 2455 2883 2854 2723 2539 2492 2883 2741 3242 2427 2588 3075 2981 3579 3064 2825 2352 2055 2238 2394 2160 2170 2306 2379 2708 2722 2727 2732 2676 2756 2681 2928 2320 2591
1044 904 717 388 320 322 321 267 144 21 33 452 520 455 439 380 430 458 593 678 612 605 694 510 420 360 406 370 448 490 461 370 288 334 605 752 787 828 935 1171 1324 1492 1728 2021 2235 2328 2274 2255 2238 2222 2400 2549 2486 2521 2630 2509 2568 2768 2795 2650 2905 3053 2900 3247 2765 3069 2670 2439 2539 2738 2893 2523 2339 2494 2699 3373 3136 2399 2682 2386 2018 2151 2107 2396 2106 2293 2229 2411 2288 2429 2609 2657 2716 2861 1886 1853 1961
1056 1068 894 720 493 391 352 270 306 9 91 277 427 522 422 361 310 464 558 693 637 629 626 541 391 272 434 352 458 491 432 317 275 410 653 716 755 776 879 1057 1145 1338 1522 1832 2048 2261 2210 2149 2136 2201 2392 2500 2333 2392 2509 2452 2460 2707 2711 2621 2760 2706 2674 2531 2704 2735 2530 2456 2523 2476 2432 2913 2306 2221 3234 3004 4040 2961 2861 2834 2256 2151 1835 2060 2454 3439 2693 2545 2225 2138 2258 2624 3055 2220 1941 1771 1668
889 993 893 820 579 576 492 398 312 150 133 173 237 459 427 351 233 233 415 691 642 608 641 504 415 353 366 390 462 486 426 313 288 496 694 685 720 742 814 927 1030 1199 1386 1646 1998 2165 2164 2149 2121 2377 2364 2434 2197 2275 2350 2376 2424 2573 2648 2579 2608 2643 2712 2540 2600 2705 2503 2417 2523 2516 2423 2694 2404 2238 2152 2670 2843 2787 2474 2542 2523 2318 2640 3216 3539 2768 2834 2992 2644 2262 2314 2705 2393 2158 2055 1849 1829
829 846 847 761 565 415 423 382 181 214 256 96 141 329 374 372 179 309 446 552 621 678 692 575 422 368 363 400 459 482 418 351 350 560 714 693 720 744 813 829 893 1086 1300 1496 1793 2064 2114 2143 2198 2375 2285 2330 2080 2197 2254 2429 2390 2454 2573 2586 2570 2578 2712 2631 2548 2704 2540 2444 2525 2574 2869 2464 2432 2286 2174 2332 2540 2700 2728 2161 2539 2762 2796 2890 3458 2715 2795 2911 2453 2375 2369 2224 2226 2445 2345 2252 2051
574 687 709 744 853 921 977 538 44 43 14 69 108 220 35 378 282 304 370 419 541 606 684 652 468 371 379 413 453 475 430 398 415 591 724 715 730 752 812 765 790 962 1241 1338 1600 1904 2080 2110 2186 2340 2298 2215 1945 2064 2208 2430 2356 2370 2481 2543 2518 2540 2656 2679 2598 2642 2604 2482 2519 2636 2609 2490 2409 2279 2213 2145 2218 2450 2616 2530 2354 2456 2702 2795 3190 2887 2726 2648 2737 2468 2449 2452 2398 2415 2515 2446 2236
422 522 514 641 694 785 791 792 647 459 0 202 39 13 22 141 103 206 461 425 578 613 636 708 620 370 381 443 448 439 449 456 475 623 757 746 765 797 817 743 694 828 1092 1164 1398 1697 2096 2086 2160 2298 2220 2106 1869 1937 2145 2300 2314 2321 2392 2664 2592 2534 2558 2656 2612 2596 2610 2546 2570 2580 2869 2476 2377 2275 2218 2271 2319 2384 2496 2535 2401 2217 2410 2626 2789 3070 2765 2635 2672 2750 2552 2319 2373 2439 2438 2301 2092
116 291 296 386 412 392 53 83 194 0 0 0 6 12 7 63 76 267 472 521 564 663 709 721 686 464 367 434 439 430 450 496 530 666 791 781 812 889 876 748 658 712 925 1020 1245 1519 1828 2091 2142 2233 2133 2017 1795 1821 2009 2178 2208 2285 2316 2452 2515 2690 2552 2576 2602 2544 2567 2574 2573 2590 2846 2383 2268 2240 2237 2288 2359 2391 2413 2440 2396 2216 2170 2294 2439 2547 2768 2591 2534 2680 2670 2511 2590 2508 2270 1673 1537
14 158 194 63 13 0 0 0 0 0 0 0 0 0 0 1 6 312 369 466 620 686 714 729 683 583 358 402 425 405 492 557 584 723 817 827 893 949 928 802 667 619 767 876 1111 1372 1632 1904 2050 2119 2033 1921 1742 1698 1847 2051 2086 2184 2244 2330 2406 2671 2526 2538 2569 2547 2498 2526 2538 2478 2492 2423 2178 2142 2163 2179 2232 2248 2286 2347 2332 2306 2256 2202 2333 2440 2599 2574 2515 2506 2630 2420 2490 2557 2354 2258 2131
0 234 121 1 0 0 0 0 0 0 0 0 0 0 0 0 0 0 248 567 660 689 712 712 680 559 331 366 371 376 530 601 640 740 800 842 912 943 924 820 722 587 636 740 962 1202 1569 1802 1886 2019 1896 1746 1703 1553 1644 1856 1982 2104 2114 2193 2257 2371 2454 2468 2523 2534 2423 2408 2441 2448 2357 2627 2197 2059 2079 2077 2045 2089 2144 2182 2190 2226 2223 2242 2298 2378 2459 2598 2440 2488 2568 2520 2436 2443 2398 2349 2316
0 0 0 0 0 0 0 0 0 0 0 0 0 0 0 0 0 0 340 631 656 700 707 700 649 556 430 313 326 404 558 627 665 752 811 865 907 924 910 822 766 605 572 642 816 1049 1427 1672 1692 1882 1816 1716 1662 1417 1587 1618 1844 1970 2000 1987 2094 2185 2304 2379 2432 2463 2388 2210 2260 2372 2422 2265 2907 2160 2095 2060 1990 2004 2055 2062 2040 2151 2208 2200 2344 2335 2373 2650 2540 2528 2564 2515 2412 2296 2332 2280 2119
0 0 0 0 0 0 0 0 0 0 0 0 0 0 0 0 1 98 412 602 670 695 686 672 623 566 465 287 337 482 601 662 716 766 814 857 911 922 916 827 783 673 548 557 716 993 1280 1512 1620 1787 1748 1668 1573 1304 1372 1431 1634 1741 1792 1867 1942 2024 2160 2236 2266 2309 2262 2065 2058 2232 2403 2388 2595 2410 2243 2117 2683 2042 2032 2035 2024 2379 2329 2254 2233 2274 2277 2417 2494 2539 2485 2207 1897 1834 1803 1723 1649
0 0 0 0 0 0 0 0 0 0 0 0 0 8 0 0 0 465 586 522 652 699 680 658 627 580 404 270 375 528 621 705 755 774 813 838 906 919 900 833 772 688 585 523 647 868 1149 1366 1485 1584 1648 1537 1489 1223 1246 1298 1456 1636 1690 1760 1804 1900 2006 2064 2059 2081 2125 2009 2077 2149 2310 2432 2556 2379 2320 2204 2105 2093 2032 2041 2033 2053 2012 2086 2105 2168 2135 2176 2320 2270 2011 2370 2394 2141 1827 1826 1780
0 0 0 0 0 0 0 0 0 0 0 0 1 9 0 0 28 534 566 601 624 673 679 649 622 569 288 264 395 545 647 712 775 778 799 813 890 921 895 834 765 681 600 529 632 793 1107 1183 1312 1398 1403 1437 1397 1176 1249 1155 1272 1464 1595 1636 1644 1721 1785 1816 1900 1894 1900 1892 2011 2083 2233 2388 2609 2415 2352 2283 2243 2214 2063 2040 2061 2082 1971 1979 2037 2034 1911 1898 2090 2044 2326 2061 2025 2246 2266 2137 1957
0 0 0 0 0 0 0 0 0 0 0 0 0 6 2 0 65 541 546 589 606 609 646 644 615 541 384 293 408 545 646 700 762 784 799 796 833 911 912 861 795 694 606 562 612 731 924 1019 1137 1188 1287 1367 1357 1185 1035 1050 1130 1265 1402 1582 1474 1526 1654 1680 1736 1794 1782 1754 1999 2020 2124 2296 2601 2475 2486 2439 2396 2363 2276 2026 2047 2101 2035 2186 2280 2195 2090 2075 1950 1776 2243 2024 1843 1773 1812 1961 1982
0 0 0 0 0 0 0 0 0 0 0 0 0 2 0 0 140 567 540 558 568 580 602 605 605 514 377 313 412 525 625 680 753 795 789 791 798 866 935 932 875 810 649 550 603 707 831 876 1131 974 1072 1189 1234 1156 947 940 989 1068 1208 1406 1376 1399 1472 1590 1641 1702 1778 1754 1834 1961 2032 2162 2433 2441 2511 2536 2468 2422 2243 1975 1806 1988 2228 2416 2188 2017 2227 2068 1915 1965 1892 2741 2136 1854 1168 780 961
0 0 0 0 0 0 0 0 0 0 0 0 0 0 0 0 270 609 539 532 524 534 554 561 560 488 360 314 391 495 595 662 733 775 789 781 763 818 906 971 969 892 676 544 596 677 779 805 874 832 861 966 1041 1044 881 872 903 930 1024 1158 1583 1330 1354 1465 1599 1674 1806 1838 1848 1904 1958 2038 2276 2254 2329 2383 2402 2221 1990 1826 1923 2074 2203 2451 2280 2334 2327 2111 1825 2057 1939 833 589 442 0 1 55
0 0 0 0 0 0 0 0 0 0 0 0 0 0 0 8 306 569 557 505 490 481 508 536 503 438 388 355 385 456 537 626 683 754 767 773 758 780 874 935 968 904 698 534 583 638 701 754 806 832 683 785 846 854 774 814 856 859 885 984 1220 1357 1309 1372 1555 1651 1746 1848 1915 1923 1932 1938 2268 2165 2224 2291 2173 2171 2230 2069 2063 2191 2348 2447 2340 2300 2438 2162 2134 2066 1553 316 42 0 0 0 0
0 0 0 0 0 0 0 0 0 0 1 0 0 0 0 25 323 555 559 508 483 432 392 503 492 433 436 414 404 441 502 560 626 695 752 770 765 774 838 918 955 910 624 525 604 599 648 704 763 740 612 574 732 724 833 866 883 841 802 846 995 1312 1318 1435 1508 1632 1713 1794 1889 1936 1937 1914 1980 2234 2184 2219 2058 2251 2103 2078 2085 2267 2514 2406 2462 2461 2383 2288 2063 1776 1221 458 22 133 14 0 10
0 0 0 0 0 0 0 0 0 0 0 0 0 0 0 3 194 484 574 544 490 433 437 464 481 482 464 476 455 451 492 547 585 640 711 774 784 783 808 870 932 918 761 538 560 584 607 667 786 730 547 519 658 667 821 892 909 861 772 772 894 1083 1311 1344 1556 1582 1665 1727 1806 1882 1916 1898 1919 2055 2201 2179 2103 2639 2073 2057 2076 2280 2560 2444 2445 2482 2312 2314 1948 1682 1726 1277 0 0 0 0 0
0 0 0 0 0 0 0 0 0 0 0 0 0 0 0 0 74 342 522 540 506 468 445 457 474 480 485 497 503 485 507 532 585 621 664 727 782 773 794 840 864 892 899 789 685 601 591 635 746 733 512 499 637 711 846 954 914 880 832 835 842 940 1234 1439 1463 1557 1598 1635 1731 1808 1892 1864 1880 1956 2276 2112 2121 2315 2039 2018 2146 2277 2546 2548 2430 2352 2365 2430 2575 1699 1090 608 74 0 0 0 0
0 0 0 0 0 0 0 0 0 0 0 0 0 0 0 0 1 197 418 514 547 496 474 474 470 483 489 480 495 484 461 507 566 615 630 683 729 776 782 800 837 863 866 848 783 696 568 623 732 737 627 522 623 747 811 928 931 982 875 859 906 933 1120 1378 1428 1528 1559 1571 1628 1801 1897 1847 1848 1877 1970 2147 2049 2099 2106 2086 2140 2170 2372 2689 2605 2414 2379 2358 2545 2107 1262 673 9 0 230 0 0
0 0 0 0 0 0 0 0 0 0 0 0 0 0 0 0 0 172 270 444 511 506 482 486 456 456 490 498 494 462 394 428 511 579 622 635 674 723 752 783 840 849 858 842 820 735 665 736 730 767 674 569 620 793 1016 902 996 1016 981 968 983 1008 1138 1281 1432 1515 1570 1576 1594 1707 1851 1893 1843 1818 1821 1995 2043 1985 2089 2042 2028 2086 2158 2522 2516 2404 2420 2267 2134 2176 1719 674 0 0 0 0 445
0 0 0 0 0 0 0 0 0 0 0 0 0 0 0 0 0 74 213 317 287 268 265 274 428 444 479 506 491 456 426 407 479 560 617 655 692 722 752 773 827 892 894 870 861 806 840 799 815 856 779 683 646 927 1048 979 1182 1085 1095 1080 1048 1014 1141 1260 1383 1496 1573 1633 1642 1724 1881 1908 1839 1805 1792 1863 2125 1898 2034 2054 2017 2108 2127 2238 2486 2482 2441 2222 1988 1962 1880 1291 226 0 0 0 34
0 0 0 0 0 0 0 0 0 0 0 0 0 0 0 0 0 0 95 142 190 169 296 414 409 431 451 456 473 473 426 396 440 507 569 624 653 694 724 745 798 906 948 961 966 958 994 981 942 944 929 864 784 863 1042 1090 1146 1069 1101 1104 1068 1022 1096 1170 1315 1426 1502 1583 1653 1743 1813 1932 1848 1826 1796 1789 1995 1926 1886 2064 2146 2235 2200 2101 2430 2450 2447 2241 2114 1877 1851 1443 461 0 0 0 15
0 0 0 0 0 0 0 0 0 0 0 0 0 0 0 0 0 0 5 123 231 156 143 186 236 380 411 431 442 462 446 406 382 455 517 575 626 645 668 707 768 878 981 1021 1042 1033 1060 1071 1050 1053 1037 999 952 964 1100 1261 1097 1079 1064 1064 1042 1018 1049 1084 1214 1369 1425 1470 1530 1573 1588 1874 1922 1913 1862 1797 1859 2057 1806 1868 2119 2319 2351 2065 2507 2262 2318 2287 2190 1961 1792 1434 1030 354 0 0 0
0 0 0 0 0 0 0 0 0 0 0 0 0 0 0 0 0 0 0 56 158 178 173 170 150 320 369 382 408 421 431 398 371 409 471 534 591 627 666 683 739 826 957 1028 1082 1098 1108 1145 1128 1127 1136 1211 1051 1042 1140 1244 1119 1104 1080 1065 1035 1002 986 1037 1098 1280 1318 1359 1394 1447 1509 1769 1948 1958 1917 1840 1850 1976 1959 1735 1787 2058 2265 2281 2447 2277 2228 2231 2171 2102 1654 1471 1170 674 0 0 0
0 0 0 0 0 0 0 0 0 0 0 0 0 0 0 0 0 0 0 0 10 182 318 216 325 319 314 333 367 362 137 390 368 380 427 488 557 605 630 665 694 757 880 994 1078 1147 1164 1180 1194 1206 1203 1304 1114 1059 1164 1193 1236 1109 1100 1084 1045 1018 1008 991 1058 1151 1234 1434 1318 1429 1541 1680 1890 1964 1923 1888 1864 1879 2275 1849 1698 1748 1927 2079 2764 2327 2216 2181 2206 2243 1963 1521 1471 1156 834 463 0
0 0 0 0 0 0 0 0 0 0 0 0 0 0 0 0 0 0 0 0 1 84 132 141 126 148 320 331 345 204 101 122 277 357 383 441 524 574 597 609 633 686 814 937 1047 1140 1186 1189 1207 1222 1258 1282 1248 1130 1199 1150 1170 1250 1074 1066 1039 1050 1040 1053 1035 1120 1186 1217 1294 1351 1470 1649 1832 1936 1950 1939 1920 1898 2027 2065 1783 1708 1787 1964 2701 2397 2236 2184 2245 2340 2256 1895 1643 1568 1328 1190 554
0 0 0 0 0 0 0 0 0 0 0 0 0 0 0 0 0 0 0 0 0 2 32 78 87 105 280 360 346 336 277 110 137 342 350 380 464 558 591 604 607 626 702 842 962 1071 1165 1192 1205 1220 1266 1309 1332 1296 1195 1142 1129 1116 1057 1059 1048 1040 1060 1076 1038 1129 1187 1196 1202 1370 1505 1635 1774 1900 1937 1990 1990 1964 1989 2115 1905 1748 1750 2235 2752 2420 2321 2245 2323 2372 2356 2234 1975 1800 1490 1249 1039
0 0 0 0 0 0 0 0 0 0 0 0 0 0 0 0 0 0 0 0 0 4 29 44 79 78 116 359 363 362 332 305 289 291 316 326 377 483 563 614 622 633 647 757 869 971 1099 1155 1167 1195 1237 1276 1318 1328 1289 1221 1148 1104 1052 1034 1050 1041 1037 1034 1063 1116 1184 1193 1171 1254 1486 1611 1718 1826 1887 1964 2015 2004 2050 2122 2182 1916 1946 2045 2375 2449 2413 2371 2358 2370 2390 2371 2161 2014 1825 1432 1174
0 0 0 0 0 0 0 0 0 0 0 0 0 0 0 0 0 0 0 0 0 0 2 14 43 70 80 260 368 379 365 340 266 269 275 304 270 399 494 582 615 617 639 673 803 896 1024 1104 1124 1131 1151 1212 1292 1290 1249 1200 1138 1087 1053 1017 1027 1041 1048 1040 1055 1094 1146 1166 1154 1138 1345 1622 1698 1785 1847 1912 1959 2017 2068 2075 2107 2066 2026 2046 2193 2340 2406 2403 2377 2362 2338 2461 2315 2085 1964 1650 1336
0 0 0 0 0 0 0 0 0 0 0 0 0 0 0 0 0 0 0 0 0 0 0 12 20 51 65 78 284 361 390 376 341 260 143 222 290 335 431 517 583 621 635 636 752 831 946 1054 1098 1088 1093 1137 1257 1290 1264 1214 1147 1107 1089 1050 1017 1065 1042 1047 1056 1058 1092 1113 1114 1114 1174 1515 1677 1788 1816 1863 1908 1966 2071 2076 2149 2142 2054 2084 2209 2324 2396 2432 2475 2460 2495 2518 2426 2184 1965 1798 1670
0 0 0 0 0 0 0 0 0 0 0 0 0 0 0 0 0 0 0 0 0 0 0 2 9 21 36 38 133 230 338 405 389 320 152 173 278 296 373 457 538 598 626 616 688 781 859 976 1054 1077 1067 1089 1198 1280 1304 1302 1261 1197 1146 1106 1065 1041 1054 1044 1069 1074 1066 1081 1096 1097 1092 1261 1588 1706 1763 1848 1854 1895 2001 2039 2063 2118 2089 2084 2267 2371 2482 2461 2545 2589 2586 2553 2503 2386 2161 1980 1846
0 0 0 0 0 0 0 0 0 0 0 0 0 0 0 0 0 0 0 0 0 0 0 0 11 18 20 15 17 47 98 322 366 378 308 272 278 281 303 389 484 550 580 589 599 740 802 890 986 1054 1075 1087 1156 1303 1315 1353 1366 1335 1292 1268 1236 1172 1091 1056 1073 1088 1081 1062 1075 1070 1081 1074 1364 1574 1642 1703 1808 1884 1879 1966 2112 2172 2090 2099 2202 2354 2462 2472 2555 2618 2626 2599 2635 2580 2426 2224 2031
0 0 0 0 0 0 0 0 0 0 0 0 0 0 0 0 0 0 0 0 0 0 0 0 2 17 21 24 22 36 77 124 260 349 366 324 304 309 307 326 409 483 540 564 566 643 765 836 908 990 1038 1071 1138 1310 1313 1368 1406 1400 1398 1369 1301 1192 1060 1046 1057 1098 1111 1105 1068 1061 1055 1056 1035 1298 1494 1650 1706 1784 1846 1897 1963 2125 2119 2104 2164 2349 2429 2479 2524 2605 2648 2682 2678 2685 2674 2544 2309
0 0 0 0 0 0 0 0 0 0 0 0 0 0 0 0 0 0 0 0 0 0 0 0 0 5 14 26 23 22 51 95 129 178 358 362 356 354 343 332 351 414 474 536 563 577 702 781 843 905 969 1017 1084 1206 1295 1348 1403 1417 1416 1373 1306 1204 1102 1074 1094 1104 1121 1125 1101 1062 1044 1038 1017 1064 1370 1606 1619 1704 1790 2208 1938 2038 2166 2155 2207 2280 2429 2476 2503 2561 2634 2669 2677 2709 2768 2733 2594
0 0 0 0 0 0 0 0 0 0 0 0 0 0 0 0 0 0 0 0 0 0 0 0 0 0 8 24 17 8 32 62 80 139 302 328 358 381 406 399 390 370 410 464 511 538 606 738 805 857 913 946 1019 1134 1249 1312 1366 1399 1399 1383 1325 1262 1194 1143 1125 1100 1097 1094 1105 1088 1058 1041 1010 978 1310 1536 1578 1589 1701 1867 1948 1980 2102 2226 2229 2288 2402 2478 2469 2529 2572 2617 2643 2719 2792 2831 2791
0 0 0 0 0 0 0 0 0 0 0 0 0 0 0 0 0 0 0 0 0 0 0 0 0 0 0 7 12 4 11 40 80 112 150 313 350 387 421 438 423 417 388 404 334 402 536 665 829 839 885 924 981 1086 1296 1288 1310 1350 1361 1357 1340 1278 1234 1192 1151 1110 1078 1082 1088 1067 1062 1020 1012 987 1080 1343 1521 1553 1606 1718 1849 1964 2043 2134 2242 2299 2350 2459 2434 2526 2541 2572 2617 2648 2693 2729 2786
0 0 0 0 0 0 0 0 0 0 0 0 0 0 0 0 0 0 0 0 0 0 0 0 0 0 0 0 6 11 2 15 44 94 156 193 340 376 409 425 437 422 408 324 357 421 508 620 754 845 903 946 991 1066 1165 1249 1264 1304 1331 1328 1311 1287 1261 1204 1160 1121 1112 1113 1122 1140 1166 1167 1027 1007 1059 1259 1424 1518 1560 1642 1732 1889 1992 2081 2214 2314 2359 2464 2456 2515 2508 2535 2556 2573 2617 2663 2677
0 0 0 0 0 0 0 0 0 0 0 0 0 0 0 0 0 0 0 0 0 0 0 0 0 0 0 0 2 17 18 15 30 72 143 198 327 369 404 424 410 282 335 368 388 435 510 612 718 841 910 974 1021 1075 1196 1238 1254 1279 1305 1311 1301 1297 1282 1247 1205 1195 1190 1201 1206 1226 1246 1239 1139 1034 1107 1264 1364 1472 1534 1578 1658 1745 1896 2052 2102 2259 2302 2436 2496 2498 2480 2525 2552 2544 2552 2568 2583
Wind_Speed
nan nan nan nan nan nan nan nan 14 nan nan 13 nan 13 15 13 11 11 10 12 9 15 15 7 3 5 10 10 8 9 14 nan 16 nan nan 10 nan 6 4 6 6 5 3 3 3 4 4 7 7 7 7 7 7 7 7 7 7 7 6 6 6 5 5 6 5 5 5 4 4 3 3 3 3 4 5 4 4 3 3 4 6 7 6 6 6 6 5 4 4 5 5 6 6 9 12 11 12
nan nan nan nan nan nan 12 nan nan 14 14 15 nan nan 15 13 13 14 13 14 14 12 13 6 6 11 14 6 2 5 15 14 14 13 11 nan 2 2 6 7 7 7 4 2 3 4 4 5 6 6 6 6 6 6 6 7 6 5 4 4 5 5 4 4 4 5 5 4 3 3 3 3 3 4 4 3 2 1 2 5 6 6 5 5 5 4 4 2 4 4 5 8 10 13 11 8 6
nan nan nan nan nan 13 9 nan 13 11 nan nan nan nan 13 12 13 12 11 12 11 7 8 6 8 10 9 7 7 13 nan 13 8 9 7 4 3 6 6 7 6 6 6 3 3 3 5 3 5 6 6 6 6 6 6 5 5 4 4 4 5 4 4 3 4 4 3 3 3 3 3 3 3 3 3 2 1 1 3 4 4 5 4 3 3 3 2 2 3 4 7 9 13 8 3 3 4
nan nan 10 nan nan nan 11 11 11 10 nan nan nan nan 12 12 11 9 7 8 8 5 7 6 9 13 8 10 9 11 10 8 8 1 nan 8 nan 5 6 7 6 5 4 3 3 4 5 4 5 5 6 6 6 6 5 4 4 3 3 3 3 4 3 3 3 3 2 2 2 2 2 2 3 2 2 1 1 2 2 3 1 1 1 1 2 3 2 3 5 6 8 10 12 6 6 6 4
nan nan 9 nan 8 8 9 10 10 9 11 nan nan 11 12 11 8 5 6 8 7 6 6 7 8 13 9 8 11 11 9 6 3 9 nan 7 3 5 5 6 6 6 6 5 4 3 3 7 6 7 7 7 6 5 5 4 3 2 2 2 2 2 2 2 2 1 2 1 1 1 1 1 1 1 2 2 3 3 1 3 3 3 2 2 1 2 4 5 5 7 9 12 8 5 2 2 4
2 6 nan 7 6 4 7 10 12 12 13 7 nan 9 8 8 5 4 3 5 5 5 6 6 5 5 10 11 12 7 2 3 5 6 4 6 6 7 7 6 6 6 6 5 3 3 3 7 8 8 7 7 6 5 5 4 2 1 1 2 1 2 3 2 2 2 1 0 1 1 1 1 2 3 3 3 4 4 4 4 5 6 5 2 3 1 5 3 3 5 10 12 8 5 5 5 3
4 nan nan 5 5 5 8 9 nan nan 13 8 7 5 5 6 3 2 2 2 8 5 9 5 2 4 7 8 8 7 8 2 2 4 5 5 6 7 8 6 5 7 7 3 2 2 3 9 9 9 8 7 6 5 5 3 2 2 2 1 1 2 2 1 1 1 1 1 2 1 2 2 3 4 4 4 4 5 5 5 5 4 5 4 2 2 4 2 1 4 9 12 10 8 5 5 3
4 3 4 3 1 3 7 9 13 nan 9 6 4 2 3 1 2 2 3 3 4 4 4 3 4 5 8 8 6 8 8 5 5 5 4 5 6 6 6 5 4 6 6 2 2 3 6 9 9 9 8 7 6 5 4 3 3 3 3 2 1 1 0 0 1 1 2 2 3 3 3 4 4 5 5 5 6 6 6 6 7 6 6 6 8 6 6 6 4 4 9 12 10 6 4 3 3
2 5 2 3 1 2 6 8 10 8 11 6 5 3 1 1 1 1 3 5 3 3 1 1 5 4 3 4 5 5 6 5 7 9 9 7 7 6 3 4 5 5 4 2 2 4 3 8 9 10 9 7 6 4 3 3 3 4 3 3 3 2 3 3 3 3 4 5 5 6 5 6 6 7 7 8 8 8 8 9 9 9 8 7 7 8 10 9 6 5 7 11 10 5 3 4 4
1 5 2 2 4 7 nan nan nan nan 8 5 4 3 1 1 2 4 2 2 2 3 5 6 7 3 1 3 3 5 3 5 7 9 9 8 8 5 5 5 4 5 2 2 2 3 4 8 10 10 9 7 5 4 4 4 4 5 5 7 5 5 6 6 6 6 7 8 8 8 8 8 9 9 10 10 10 11 12 12 11 9 8 7 4 6 5 5 4 4 6 9 9 2 2 3 4
2 3 5 5 4 nan nan nan nan nan 5 4 4 2 3 2 3 3 6 3 1 3 3 5 7 3 4 4 7 5 3 7 9 10 9 9 9 7 5 4 5 5 3 1 3 3 4 4 9 10 8 7 5 5 5 6 6 8 8 8 7 8 9 9 9 9 10 10 10 10 10 10 10 11 11 12 12 13 13 13 12 10 9 7 7 7 7 6 6 5 5 8 12 5 5 4 3
5 4 4 7 9 nan nan nan nan 8 4 2 4 2 4 1 3 3 2 4 2 3 1 3 1 2 6 4 5 3 4 7 8 9 9 9 8 8 7 4 5 4 3 1 2 4 4 5 4 7 9 6 4 6 7 7 8 10 10 9 9 10 10 11 11 11 11 12 12 12 12 12 12 12 12 12 13 13 13 13 12 12 12 11 9 9 8 7 6 5 5 6 9 12 8 3 3
5 4 4 4 5 nan nan 8 nan 3 nan 4 2 3 1 3 1 3 2 5 4 3 1 3 7 5 5 5 5 2 4 5 7 10 11 8 8 7 6 5 4 4 3 1 2 4 4 5 4 4 4 6 5 8 9 9 11 11 11 11 11 11 11 12 12 12 12 13 13 13 13 13 13 13 12 12 12 13 13 13 14 14 14 13 11 11 10 10 8 7 6 5 5 6 6 6 3
5 4 4 5 4 6 7 7 5 3 nan nan 2 2 3 1 2 3 5 6 4 2 3 8 4 5 6 3 3 3 4 5 8 11 10 9 8 8 8 6 5 3 2 1 2 3 4 5 5 6 6 8 11 10 11 11 12 12 12 12 12 12 12 13 12 12 12 13 13 13 12 13 13 13 13 12 11 11 12 13 13 13 14 13 13 13 14 13 10 7 7 6 5 4 3 2 2
4 6 4 5 7 7 5 4 nan 2 nan 0 1 4 2 4 2 3 4 6 2 5 7 4 3 4 4 6 3 3 3 5 7 9 11 10 9 9 9 7 5 3 1 1 2 2 4 5 5 7 9 11 12 14 16 15 13 12 12 12 12 12 12 12 12 11 11 12 12 12 13 13 13 10 12 10 11 10 12 13 12 11 12 12 14 16 16 15 13 11 8 7 6 5 4 3 3
6 7 6 7 6 4 8 5 nan nan nan 1 1 1 2 7 4 3 2 2 3 4 7 2 4 5 0 3 3 9 5 4 5 7 10 11 8 7 8 7 5 3 1 1 1 3 4 6 7 9 11 12 14 15 16 17 14 12 12 12 12 11 12 12 11 11 12 12 11 13 12 13 12 11 8 11 10 11 10 10 8 10 12 14 14 14 16 16 14 12 10 8 7 6 5 4 3
7 8 7 5 6 2 7 nan nan nan nan 4 2 2 1 3 4 5 3 6 7 4 3 3 3 6 5 4 10 13 9 3 3 7 8 7 6 6 5 5 4 2 2 2 1 2 4 6 8 10 12 12 13 14 16 16 16 12 13 12 11 11 12 12 11 11 12 12 11 11 11 13 11 11 12 11 13 12 7 9 8 9 12 14 13 13 14 13 13 12 11 10 9 8 8 7 7
8 5 7 6 3 5 nan 5 nan nan nan 2 2 3 2 2 2 1 5 6 4 2 4 5 11 12 9 7 7 12 13 7 4 7 6 6 5 7 7 7 6 5 3 2 2 2 3 7 8 10 12 11 12 14 15 16 16 13 15 15 14 13 12 12 12 13 12 15 11 11 12 12 12 12 11 12 12 9 8 7 8 10 12 11 11 12 12 11 10 11 11 11 10 9 6 12 13
7 6 5 5 4 3 5 6 7 nan nan 3 1 1 2 2 6 3 2 0 5 4 4 5 10 11 12 10 7 10 15 11 5 5 6 8 8 11 10 8 7 3 3 4 3 3 3 6 9 9 11 11 12 14 14 15 15 14 14 14 14 13 13 12 12 12 12 11 11 11 12 12 12 13 12 12 10 8 8 6 9 9 12 10 9 10 11 10 8 9 11 12 11 9 11 13 14
5 6 3 4 3 7 10 9 10 nan nan 6 4 1 4 2 3 3 2 3 3 5 4 3 7 9 10 10 6 8 12 13 7 6 8 10 10 11 12 12 8 6 4 4 3 4 3 5 8 9 9 11 11 13 13 14 14 13 13 13 12 13 12 11 10 10 10 9 10 10 11 12 12 13 13 12 10 9 7 6 8 10 12 9 7 10 9 7 4 7 10 9 11 13 13 13 14
11 7 3 6 6 6 11 9 11 10 8 7 4 4 3 4 5 3 3 3 7 5 9 12 11 12 12 13 9 6 10 12 8 8 9 10 10 9 10 11 10 7 2 2 3 4 4 5 8 9 9 10 11 12 12 13 13 12 13 12 12 12 11 10 9 8 8 8 9 10 11 12 12 12 12 11 10 11 10 10 11 12 11 9 8 8 9 9 8 8 10 11 13 14 14 14 15
14 2 4 8 12 8 11 11 12 12 11 nan 9 6 5 2 6 5 9 3 6 10 11 6 12 16 16 15 13 6 8 10 8 8 10 11 13 11 9 9 7 4 1 2 3 3 4 6 8 9 7 9 10 11 11 11 12 11 11 11 10 11 10 9 8 7 7 8 9 10 11 11 12 12 12 12 11 11 12 13 12 12 12 11 9 9 9 9 8 8 9 10 13 14 14 14 15
11 9 4 6 8 11 11 11 nan nan nan nan 8 7 nan 3 7 6 8 9 6 6 5 7 12 16 17 15 14 10 8 8 8 8 8 10 9 9 10 10 10 8 5 3 2 3 4 6 8 9 8 8 9 11 11 11 11 11 10 9 9 10 10 8 8 7 8 9 10 10 11 11 12 11 12 13 13 13 13 13 13 12 12 11 11 10 10 9 8 8 10 9 12 14 13 14 14
11 9 14 9 9 7 12 17 19 18 nan 9 nan nan nan 2 7 5 8 9 5 3 7 8 7 8 13 15 15 17 14 11 10 8 8 9 10 10 11 11 10 7 5 2 2 2 3 4 7 8 8 7 9 10 10 10 10 10 9 9 9 9 9 9 9 8 9 10 10 11 11 11 12 13 14 14 14 14 14 14 13 12 13 12 12 11 11 11 10 9 9 11 11 13 12 13 13
8 8 9 14 15 14 nan nan 17 nan nan nan nan nan nan nan nan 1 12 6 4 6 8 9 8 10 12 15 16 14 11 9 9 8 5 5 6 6 7 6 8 7 7 4 1 2 4 3 5 7 8 6 8 9 9 10 10 10 9 8 8 10 9 10 9 9 10 11 11 11 11 11 12 13 15 15 14 14 15 14 13 14 13 14 12 13 12 11 11 10 9 10 11 11 11 12 13
nan 4 22 nan nan nan nan nan nan nan nan nan nan nan nan nan nan 7 9 2 6 8 8 8 8 10 13 15 17 16 13 13 11 9 9 6 5 7 8 7 8 9 9 5 2 2 2 3 4 6 8 7 7 8 9 9 9 8 9 8 8 9 10 10 9 10 11 11 12 11 12 12 13 13 14 14 13 15 15 15 14 14 14 14 13 14 13 12 11 9 9 9 10 10 11 12 12
nan 21 19 nan nan nan nan nan nan nan nan nan nan nan nan nan nan nan 7 5 9 8 6 6 9 13 14 14 15 16 15 14 15 10 6 5 5 6 6 6 8 9 8 7 4 1 2 3 4 4 8 7 8 7 8 9 8 9 9 8 8 9 10 10 11 11 12 12 13 12 12 12 12 12 12 13 14 14 15 15 14 14 14 14 13 14 13 13 11 10 9 9 10 10 11 11 11
nan nan nan nan nan nan nan nan nan nan nan nan nan nan nan nan nan nan 6 6 10 10 5 6 8 11 14 17 16 15 14 13 11 9 11 9 5 4 5 4 6 6 7 8 4 0 1 4 3 4 7 8 7 6 7 8 8 9 10 8 9 9 9 11 12 12 13 13 13 13 12 12 13 12 11 12 14 15 15 14 13 14 15 14 13 13 13 13 11 10 10 10 9 9 10 10 10
nan nan nan nan nan nan nan nan nan nan nan nan nan nan nan nan nan nan 5 4 9 12 8 7 9 10 12 16 15 14 14 13 11 9 10 8 7 4 6 4 4 5 3 6 4 2 3 3 2 4 7 7 6 5 6 7 7 9 10 9 9 9 10 11 13 14 14 14 13 14 13 13 13 13 12 12 14 15 14 14 14 13 14 14 13 12 12 11 11 11 12 11 9 9 10 10 10
nan nan nan nan nan nan nan nan nan nan nan nan nan nan nan nan nan 11 5 4 6 9 7 5 4 8 11 14 16 15 14 14 14 12 9 8 8 7 7 5 4 3 2 2 3 4 1 2 2 5 7 6 6 6 7 6 6 8 9 8 9 9 10 12 13 14 15 14 14 14 14 14 14 14 12 14 15 15 14 13 14 15 15 15 13 12 11 12 12 12 14 13 12 10 11 10 9
nan nan nan nan nan nan nan nan nan nan nan nan nan nan nan nan nan 8 5 6 8 6 7 5 3 7 10 14 16 16 17 16 16 13 11 9 6 6 7 6 6 4 2 2 5 4 1 1 2 3 4 6 7 6 6 6 6 7 8 8 9 10 11 13 13 13 15 15 14 15 15 15 15 15 14 15 15 15 14 13 14 16 16 15 13 13 12 12 13 14 14 15 13 12 12 11 11
nan nan nan nan nan nan nan nan nan nan nan nan nan nan nan nan nan 7 5 4 6 6 6 5 3 5 9 13 17 17 17 17 15 14 13 11 8 6 6 7 7 5 5 4 3 2 1 1 1 1 2 4 6 6 6 6 5 6 7 8 8 10 11 12 12 14 14 15 15 15 16 15 16 16 16 15 16 15 14 14 15 16 15 13 12 11 10 11 13 14 16 15 15 16 13 14 12
nan nan nan nan nan nan nan nan nan nan nan nan nan nan nan nan 11 9 5 6 3 4 5 4 5 6 7 11 16 17 17 18 17 16 15 12 9 6 5 5 6 6 5 6 4 3 1 1 2 1 0 2 6 6 6 6 6 5 6 8 9 9 11 12 12 12 14 14 15 16 16 16 16 17 16 15 15 15 15 15 15 15 12 12 8 9 9 10 11 14 15 15 14 16 15 15 13
nan nan nan nan nan nan nan nan nan nan nan nan nan nan nan nan 12 8 4 3 2 3 4 3 3 4 7 9 15 18 19 19 21 19 18 14 9 8 5 4 5 5 5 5 5 4 2 3 3 3 4 4 6 7 6 5 5 5 6 8 8 10 11 11 11 11 13 13 14 16 16 16 17 17 16 14 15 15 14 14 14 12 11 10 7 7 7 9 11 11 12 14 13 13 nan nan nan
nan nan nan nan nan nan nan nan nan nan nan nan nan nan nan nan 14 9 5 3 3 3 4 3 2 2 4 8 13 19 20 21 22 18 17 15 12 9 7 5 5 4 4 5 5 5 5 5 6 4 4 4 6 8 8 6 5 6 6 7 9 10 11 11 10 11 12 12 13 15 15 15 16 16 15 13 13 15 13 13 13 12 10 10 8 8 7 8 8 9 8 12 nan nan nan nan nan
nan nan nan nan nan nan nan nan nan nan nan nan nan nan nan nan 15 10 8 6 4 8 10 6 2 1 4 7 11 17 21 21 17 17 16 14 11 10 8 6 4 3 4 5 5 5 5 5 5 5 4 4 6 8 8 6 5 4 5 7 9 10 10 10 10 11 11 12 13 13 14 14 14 14 13 12 12 13 12 13 13 11 11 10 10 11 10 9 5 11 9 9 nan 9 nan nan nan
nan nan nan nan nan nan nan nan nan nan nan nan nan nan nan nan 13 9 8 9 13 15 8 5 3 3 5 7 11 17 21 21 17 18 17 16 14 11 9 7 5 4 3 4 4 4 5 5 4 2 4 4 5 6 7 7 5 6 7 6 8 8 9 9 10 10 10 11 12 12 13 14 14 13 12 10 11 12 12 11 11 10 10 11 11 13 11 9 8 12 9 11 nan nan nan nan nan
nan nan nan nan nan nan nan nan nan nan nan nan nan nan nan nan nan 13 15 13 8 6 5 4 4 6 7 9 11 16 18 11 14 16 17 16 14 14 11 8 7 7 2 2 2 3 4 5 3 4 6 4 4 5 7 8 8 7 6 5 6 7 8 8 9 9 10 10 10 11 12 13 13 12 10 10 10 11 10 10 11 11 10 11 12 10 9 9 7 9 10 10 nan nan nan nan nan
nan nan nan nan nan nan nan nan nan nan nan nan nan nan nan nan nan 19 15 6 4 3 1 1 2 7 8 10 12 12 11 14 16 18 17 16 17 16 13 10 8 8 4 1 3 4 4 4 4 6 5 5 5 6 8 9 10 10 7 6 5 6 7 7 8 8 8 9 9 10 11 12 12 12 10 9 10 10 9 9 12 11 10 11 11 12 10 9 9 9 11 10 nan nan 9 nan nan
nan nan nan nan nan nan nan nan nan nan nan nan nan nan nan nan nan 19 11 9 11 7 6 7 4 6 8 10 10 9 12 13 18 20 19 16 16 15 14 12 10 8 5 2 2 2 4 4 5 5 5 6 7 6 8 10 11 10 7 6 4 4 4 5 7 8 9 8 9 9 10 10 11 11 10 8 9 9 8 10 11 11 12 11 12 14 14 11 10 9 10 11 nan nan nan nan 11
nan nan nan nan nan nan nan nan nan nan nan nan nan nan nan nan nan nan 19 22 26 22 20 21 18 16 14 15 11 8 10 13 15 18 18 17 17 18 17 13 10 9 6 4 2 2 5 3 4 5 7 7 8 8 8 11 11 10 8 7 5 4 5 3 5 8 9 9 8 8 9 8 9 10 9 9 8 8 8 9 11 12 12 12 12 14 15 14 12 11 10 10 12 nan nan nan nan
nan nan nan nan nan nan nan nan nan nan nan nan nan nan nan nan nan nan nan 26 24 24 21 17 14 13 12 7 8 7 9 10 14 18 20 20 17 15 14 14 12 8 6 3 1 3 6 6 5 7 9 9 8 8 8 9 8 7 6 5 4 4 6 5 5 6 7 7 8 7 8 8 8 8 8 8 8 7 7 9 11 11 12 12 14 15 16 13 12 11 12 10 12 nan nan nan nan
nan nan nan nan nan nan nan nan nan nan nan nan nan nan nan nan nan nan nan 23 18 23 18 15 14 15 10 9 8 6 7 8 11 12 14 18 18 16 16 15 14 10 6 2 2 4 6 7 6 6 8 9 8 8 6 6 6 5 3 4 6 6 6 7 7 8 6 7 6 6 7 7 7 7 7 7 7 7 7 8 10 12 12 13 14 14 16 17 15 14 11 10 12 9 nan nan nan
nan nan nan nan nan nan nan nan nan nan nan nan nan nan nan nan nan nan nan nan 20 18 15 16 16 12 7 8 7 6 7 8 9 12 13 17 19 18 19 17 14 12 7 3 2 4 4 5 5 6 9 8 7 7 4 3 3 4 5 6 8 8 5 4 5 7 8 7 6 5 5 6 6 7 7 7 7 7 7 8 10 11 11 12 13 15 17 17 15 14 12 11 9 9 nan nan nan
nan nan nan nan nan nan nan nan nan nan nan nan nan nan nan nan nan nan nan nan nan 14 13 18 15 10 8 7 5 4 5 6 7 8 12 16 18 17 14 14 13 10 6 4 2 3 4 5 5 7 7 7 6 4 3 2 3 4 5 7 8 7 4 4 5 7 7 7 6 6 5 6 6 7 7 7 7 7 8 7 9 10 11 12 12 14 16 14 15 14 12 11 10 9 10 9 nan
nan nan nan nan nan nan nan nan nan nan nan nan nan nan nan nan nan nan nan nan nan nan 15 20 16 12 9 7 5 3 4 4 6 9 9 10 12 12 12 11 10 9 7 4 3 4 5 5 4 5 6 7 6 3 2 2 2 4 6 6 6 5 4 6 7 6 7 6 5 5 6 6 6 6 7 7 7 7 8 7 8 10 12 12 12 13 14 14 14 14 13 13 11 10 10 9 11
nan nan nan nan nan nan nan nan nan nan nan nan nan nan nan nan nan nan nan nan nan nan nan nan nan 16 13 12 9 8 6 3 4 7 6 6 6 8 9 13 14 11 7 5 4 4 4 4 4 5 5 7 5 3 2 1 2 3 4 5 4 2 2 6 8 9 9 8 6 5 5 5 5 7 7 8 7 7 8 8 9 10 11 11 12 12 14 15 14 13 12 12 11 11 10 10 11
nan nan nan nan nan nan nan nan nan nan nan nan nan nan nan nan nan nan nan nan nan nan nan nan nan nan 9 8 9 6 5 5 5 6 4 1 2 6 10 14 14 13 10 7 4 5 5 4 4 4 6 6 5 4 4 3 3 3 4 5 3 1 3 6 6 8 8 7 6 6 7 6 6 7 8 9 9 8 9 10 11 11 12 12 13 13 14 15 14 12 11 11 12 12 10 9 10
nan nan nan nan nan nan nan nan nan nan nan nan nan nan nan nan nan nan nan nan nan nan nan nan nan nan nan 7 6 6 6 7 8 5 3 1 4 8 11 12 13 15 12 10 7 5 5 5 5 5 4 5 5 5 4 4 4 4 4 4 2 3 4 6 7 8 8 7 7 7 7 6 8 8 9 10 11 11 12 13 13 14 15 15 15 15 16 16 15 14 13 13 11 11 11 10 10
nan nan nan nan nan nan nan nan nan nan nan nan nan nan nan nan nan nan nan nan nan nan nan nan nan nan nan nan 7 5 6 7 6 6 4 1 3 6 8 9 11 11 13 11 9 5 5 6 5 5 4 6 6 5 4 5 6 6 6 5 4 4 5 7 9 9 8 7 7 6 5 6 5 7 8 11 13 13 15 16 16 17 17 17 17 17 18 18 18 17 16 16 15 13 9 10 11
nan nan nan nan nan nan nan nan nan nan nan nan nan nan nan nan nan nan nan nan nan nan nan nan nan nan nan nan 12 10 9 9 9 9 6 2 3 4 4 7 8 9 11 11 8 6 6 6 7 6 5 5 5 4 5 5 7 8 8 7 6 7 8 10 10 10 9 7 7 7 6 6 5 6 8 11 13 15 16 16 16 16 15 15 15 15 15 16 17 17 18 19 17 15 14 11 11
nan nan nan nan nan nan nan nan nan nan nan nan nan nan nan nan nan nan nan nan nan nan nan nan nan nan nan nan nan nan nan 9 10 10 8 6 6 3 1 4 6 7 9 9 10 8 6 6 7 8 7 6 5 5 5 6 7 10 9 7 6 7 10 11 11 11 10 9 8 7 6 5 7 8 10 11 13 13 15 15 14 14 12 12 13 13 13 13 14 15 16 16 18 15 17 17 14
nan nan nan nan nan nan nan nan nan nan nan nan nan nan nan nan nan nan nan nan nan nan nan nan nan nan nan nan nan nan nan 10 9 8 8 7 8 5 1 3 4 6 7 9 10 9 8 7 8 8 7 6 5 5 6 8 10 10 9 8 8 9 9 9 10 9 9 11 10 9 7 6 8 10 11 11 11 11 12 12 12 11 10 9 9 10 10 11 11 12 13 14 15 14 16 19 16
nan nan nan nan nan nan nan nan nan nan nan nan nan nan nan nan nan nan nan nan nan nan nan nan nan nan nan nan nan nan nan nan 5 5 6 8 9 6 4 2 3 6 7 7 8 8 8 8 8 8 8 6 4 6 8 10 10 10 10 8 8 9 11 11 11 11 11 12 11 9 9 9 9 10 11 11 9 8 8 8 8 8 6 6 7 7 8 9 10 10 11 12 12 12 14 14 16
nan nan nan nan nan nan nan nan nan nan nan nan nan nan nan nan nan nan nan nan nan nan nan nan nan nan nan nan nan nan nan nan nan 11 13 15 13 8 3 1 3 4 4 4 6 8 8 8 8 8 8 6 6 10 11 13 12 13 13 11 10 12 14 13 13 12 12 12 10 8 7 8 11 11 11 10 8 6 4 4 5 4 3 4 4 5 6 7 9 9 10 10 10 11 11 13 14
nan nan nan nan nan nan nan nan nan nan nan nan nan nan nan nan nan nan nan nan nan nan nan nan nan nan nan nan nan nan nan nan nan 12 12 12 9 5 2 1 3 4 4 4 7 7 8 9 9 8 8 9 9 9 11 12 12 14 14 14 14 15 14 14 13 13 12 12 11 8 7 9 9 10 10 8 7 4 1 1 1 2 2 2 3 4 6 7 8 8 9 9 10 11 11 12 11
nan nan nan nan nan nan nan nan nan nan nan nan nan nan nan nan nan nan nan nan nan nan nan nan nan nan nan nan nan nan nan nan nan nan 10 9 8 5 5 5 5 7 8 8 7 6 7 9 9 9 9 9 8 9 11 12 14 14 14 13 14 16 15 15 14 13 13 12 12 10 9 10 12 10 8 7 5 2 0 2 3 4 4 5 5 5 5 6 7 8 8 9 9 11 11 9 9
nan nan nan nan nan nan nan nan nan nan nan nan nan nan nan nan nan nan nan nan nan nan nan nan nan nan nan nan nan nan nan nan nan nan 9 10 9 8 8 10 12 12 9 7 5 6 7 7 8 10 10 9 9 10 10 12 14 14 12 14 15 16 15 16 13 13 13 13 12 11 11 12 10 10 8 6 4 4 3 3 5 6 6 6 6 6 7 7 7 8 8 7 9 10 9 8 7
Wind_Direction
nan nan nan nan nan nan nan nan 63 nan nan 79 nan 82 82 77 82 85 92 98 121 121 124 147 155 127 131 125 135 155 134 nan 122 nan nan 115 nan 341 24 347 337 326 344 47 70 67 33 34 332 322 328 334 330 325 324 328 326 323 325 324 316 308 312 313 307 310 318 321 318 310 309 305 302 302 301 300 285 289 280 254 242 242 219 196 192 173 178 173 192 196 201 214 220 223 224 214 218
nan nan nan nan nan nan 52 nan nan 71 75 88 nan nan 87 89 86 86 79 88 107 104 108 129 145 170 168 218 185 175 157 151 126 123 134 nan 4 351 1 351 344 329 347 33 46 62 60 47 338 329 335 337 331 329 331 327 321 320 325 314 304 306 315 307 302 308 316 318 310 306 297 290 292 294 293 291 297 305 274 252 247 249 231 203 189 182 154 178 211 209 218 221 228 227 231 246 262
nan nan nan nan nan 68 68 nan 71 70 nan nan nan nan 90 93 88 91 88 94 98 110 105 133 174 161 159 164 151 141 nan 153 151 138 137 76 342 58 9 354 349 335 338 17 37 38 81 53 347 339 336 337 337 334 331 325 322 326 326 318 313 314 314 302 297 298 311 307 299 289 284 292 297 302 304 312 339 36 266 248 247 252 267 220 189 186 201 210 230 228 232 233 245 245 239 278 326
nan nan 37 nan nan nan 66 56 72 83 nan nan nan nan 84 89 94 94 98 98 101 98 109 124 151 130 142 162 149 163 158 138 130 80 nan 65 nan 38 18 353 353 345 349 16 21 53 90 12 347 342 340 339 340 334 331 328 325 331 330 318 316 321 304 285 293 298 303 277 266 266 275 286 299 305 314 352 60 74 292 281 292 272 281 277 229 215 214 217 231 240 242 245 262 310 33 4 3
nan nan 61 nan 74 69 74 70 78 66 74 nan nan 91 91 89 76 81 90 101 108 101 101 142 156 152 141 168 152 144 121 172 80 118 nan 118 121 30 18 360 356 348 350 5 18 58 66 348 346 341 340 341 339 337 332 327 327 330 338 325 317 305 285 277 287 288 258 236 209 189 223 253 276 352 25 43 64 81 17 353 21 22 30 2 245 217 228 209 216 241 253 252 250 272 325 254 209
34 57 nan 98 76 91 74 83 70 59 69 66 nan 86 84 89 63 61 82 118 127 133 120 145 130 118 157 161 149 139 126 105 57 114 51 98 18 15 7 11 360 357 349 360 18 78 69 349 343 343 342 341 341 341 333 327 328 343 358 323 296 274 252 259 254 259 276 194 178 162 159 99 64 48 37 41 48 59 61 35 21 28 21 358 333 301 237 221 209 247 257 265 266 265 258 243 220
14 nan nan 75 80 76 91 84 nan nan 87 50 63 77 62 92 70 33 76 142 136 158 126 118 259 194 168 140 153 144 128 264 2 56 104 25 25 8 360 20 7 352 344 358 38 80 52 350 348 345 340 341 342 342 336 335 356 5 20 13 328 274 255 239 239 223 163 159 151 135 102 76 63 54 41 39 41 47 53 57 55 47 46 26 330 252 249 139 214 264 261 265 263 255 247 248 194
42 96 47 65 148 86 83 86 86 nan 95 51 83 68 95 87 30 85 55 106 73 115 130 64 109 173 150 141 130 154 178 168 240 277 313 352 16 10 352 10 7 352 342 359 82 93 10 352 353 346 339 340 347 350 344 4 21 13 44 37 2 302 307 181 139 122 111 110 110 105 100 93 83 70 59 52 46 43 49 56 62 62 53 31 3 341 6 34 7 303 279 275 285 294 286 263 157
30 116 114 99 150 119 89 68 80 82 97 107 104 95 139 197 136 109 133 137 166 205 259 98 116 170 122 205 154 146 164 239 253 302 331 337 357 4 4 1 1 360 348 10 81 88 68 4 356 346 341 342 352 3 11 40 51 56 54 66 63 64 76 81 85 89 99 102 103 104 99 91 82 79 69 60 53 50 49 52 55 53 49 48 29 9 10 18 9 333 298 295 295 298 291 251 176
53 97 75 172 188 106 nan nan nan nan 89 92 69 81 92 168 212 159 209 226 197 259 181 183 163 175 21 205 141 127 106 302 301 312 334 336 344 357 339 358 4 346 357 49 93 92 82 11 357 352 345 345 359 24 49 66 81 73 72 70 67 72 79 85 90 93 96 98 97 98 93 85 81 77 72 66 61 58 56 53 53 54 59 61 56 50 49 37 17 9 330 303 298 324 328 274 207
166 97 113 121 128 nan nan nan nan nan 113 83 119 131 118 189 217 204 163 242 268 213 217 225 203 234 141 148 139 122 14 327 334 334 344 335 336 346 344 5 8 353 344 62 104 101 87 67 5 355 350 351 12 47 72 78 91 79 70 79 80 80 84 88 91 93 93 94 96 93 91 89 84 80 76 74 70 65 62 63 63 67 73 79 79 78 73 57 42 38 7 340 320 8 32 307 18
178 145 137 120 111 nan nan nan nan 114 104 107 124 77 102 287 228 242 211 287 246 280 189 148 107 247 192 124 115 81 14 343 349 336 340 332 335 345 344 15 12 351 320 188 117 112 110 100 78 11 357 3 40 68 82 86 70 83 85 87 85 87 89 89 90 93 96 96 95 96 93 91 88 84 80 77 75 72 72 71 74 76 77 80 83 82 80 79 65 50 41 18 352 353 0 331 8
165 185 150 151 106 nan nan 113 nan 115 nan 113 11 96 102 322 350 298 276 261 294 272 179 167 311 146 159 127 129 74 19 356 354 338 335 339 337 347 344 356 14 343 304 200 126 121 119 121 103 82 51 18 64 81 85 86 89 89 92 91 93 94 94 93 95 98 100 101 99 97 94 91 87 87 84 81 78 76 76 76 77 80 83 84 90 95 92 90 74 62 56 48 34 27 344 350 352
177 188 171 136 151 117 109 104 123 149 nan nan 248 316 49 46 96 300 272 279 308 265 187 302 284 244 225 203 159 103 88 4 352 338 334 331 337 344 341 351 360 355 298 237 128 129 132 119 120 114 116 121 119 101 89 86 90 91 91 96 96 97 97 97 97 99 101 100 99 98 94 89 87 85 84 81 79 79 77 77 78 84 87 91 95 96 90 80 76 75 71 68 66 60 65 79 194
181 203 179 159 147 160 122 113 nan 114 nan 211 306 310 79 143 264 221 280 271 230 257 264 220 303 246 58 344 316 38 44 10 358 342 328 329 336 342 343 351 356 360 277 219 166 133 125 127 125 138 131 131 125 122 117 101 88 93 95 96 97 97 98 97 97 99 99 98 99 99 96 89 88 91 92 92 85 81 76 75 85 94 98 91 85 82 82 77 76 72 74 76 76 72 74 98 176
196 185 178 169 161 166 122 128 nan nan nan 164 117 217 192 169 187 242 138 203 246 272 307 214 145 164 186 9 308 310 313 355 16 352 332 324 331 337 347 354 5 10 147 196 145 129 129 132 136 139 136 134 131 125 118 115 99 94 97 94 94 97 96 97 97 97 95 96 94 95 94 102 102 99 93 99 98 80 81 81 77 82 79 75 75 71 73 70 69 72 72 77 80 82 91 109 143
216 200 169 188 164 189 127 nan nan nan nan 187 289 328 287 166 163 184 194 260 280 324 187 178 155 177 317 178 323 310 304 324 28 0 337 319 333 346 1 11 22 44 129 132 82 113 125 139 142 145 138 136 133 128 124 121 113 98 104 97 93 95 96 94 95 93 95 94 99 93 105 108 106 95 92 84 82 91 100 88 86 75 72 80 72 73 68 70 72 73 74 73 71 75 83 96 100
233 211 189 164 184 173 nan 114 nan nan nan 249 341 18 252 262 106 219 241 217 258 231 219 199 201 213 226 251 301 319 302 309 359 11 357 322 344 351 5 16 19 30 83 94 82 87 128 145 146 145 143 139 137 132 129 124 120 118 124 120 117 109 101 97 106 108 102 114 97 106 109 107 110 108 101 96 98 101 99 88 98 88 83 79 79 82 79 76 79 79 82 80 79 78 94 97 105
242 230 223 151 234 156 171 151 146 nan nan 264 247 92 127 84 340 54 174 267 311 247 198 235 235 239 253 266 314 333 315 308 343 29 359 339 354 356 3 14 22 27 76 102 91 68 123 151 152 148 144 143 143 138 134 129 132 134 130 126 121 117 109 113 112 108 117 115 118 109 109 111 110 110 100 88 89 99 106 110 94 99 84 80 82 79 80 85 85 94 83 79 81 86 91 95 99
238 210 215 131 211 187 147 141 137 nan nan 243 267 137 165 101 73 67 145 4 6 346 317 252 284 292 297 295 317 345 325 314 342 22 10 356 0 2 2 7 14 26 44 75 87 108 116 138 151 149 146 147 146 141 139 138 140 138 134 131 129 126 124 117 114 111 109 116 113 110 107 106 105 106 104 114 103 95 80 90 78 70 70 71 81 87 85 78 93 109 101 78 85 86 87 94 99
251 222 225 202 207 193 141 128 124 157 187 182 224 228 149 58 99 62 291 260 75 65 12 353 345 329 325 323 321 355 337 323 348 18 16 6 3 16 14 16 18 19 59 146 122 95 96 138 154 152 154 151 150 144 141 140 144 142 138 136 133 128 125 119 112 112 104 108 108 105 102 102 101 99 103 100 98 93 86 73 73 76 80 90 80 85 96 97 81 85 100 93 83 81 85 88 94
237 234 204 208 209 211 157 173 160 159 185 nan 191 252 112 138 128 86 344 4 56 40 27 16 343 334 335 337 329 349 349 331 352 17 19 12 4 7 9 20 27 25 49 104 81 92 91 134 150 158 149 151 149 146 144 139 143 140 135 133 133 132 122 113 110 106 102 98 99 100 101 103 101 95 95 89 89 86 88 88 89 90 97 93 91 83 93 98 100 90 87 89 87 82 82 84 87
228 212 176 179 182 173 189 185 nan nan nan nan 188 165 nan 23 117 75 11 44 143 149 357 344 359 352 345 335 327 341 352 339 349 12 20 18 11 10 8 14 15 13 32 70 101 80 110 133 149 159 156 159 158 158 152 147 146 144 142 134 127 123 119 107 100 104 101 96 94 95 95 99 97 95 90 90 89 90 93 95 91 91 92 91 89 79 82 83 82 81 82 79 80 88 84 85 86
231 215 227 195 210 144 147 156 160 169 nan 192 nan nan nan 94 98 63 41 68 200 269 325 325 347 355 345 343 352 349 351 342 346 358 15 22 14 10 7 6 15 19 27 58 96 87 91 105 147 155 161 162 162 160 153 148 151 146 137 127 124 113 113 102 97 100 102 97 94 95 96 95 90 92 94 93 91 94 96 90 86 86 82 81 80 77 76 78 81 79 71 69 72 80 84 89 90
253 214 216 199 199 182 nan nan 174 nan nan nan nan nan nan nan nan 286 63 62 228 268 292 321 347 4 12 357 358 355 348 336 336 349 4 37 26 10 8 7 9 13 22 35 78 84 70 109 143 147 162 158 166 165 153 151 151 146 133 126 121 108 110 105 104 107 102 101 98 94 94 91 87 84 87 88 91 97 96 93 86 83 83 80 78 80 75 74 77 81 83 78 79 83 86 89 89
nan 251 230 nan nan nan nan nan nan nan nan nan nan nan nan nan nan 102 76 202 259 268 289 324 356 12 22 19 7 1 357 349 339 345 1 8 14 2 11 8 8 18 22 17 20 77 85 88 131 153 171 167 175 168 157 147 140 129 119 115 115 101 106 109 109 105 104 102 98 93 89 85 81 79 83 87 88 93 93 92 91 87 83 82 78 78 76 75 75 79 83 85 83 85 86 87 88
nan 225 216 nan nan nan nan nan nan nan nan nan nan nan nan nan nan nan 166 257 266 271 294 338 1 20 27 25 24 19 6 358 354 339 335 359 10 14 8 4 15 20 9 18 26 70 80 66 85 131 171 172 178 165 154 139 131 115 112 112 110 103 108 109 107 106 104 102 99 92 87 84 80 79 80 86 91 92 89 88 90 89 87 85 81 80 80 77 76 74 76 80 83 84 88 88 85
nan nan nan nan nan nan nan nan nan nan nan nan nan nan nan nan nan nan 168 275 294 291 299 343 12 29 36 25 22 28 26 17 2 346 350 350 4 8 359 4 16 11 12 23 31 223 28 40 64 135 177 181 176 163 155 139 123 109 101 108 101 106 110 105 105 104 102 101 99 93 89 85 84 79 78 88 92 93 93 91 90 88 88 84 80 83 85 84 82 79 75 78 82 85 89 90 90
nan nan nan nan nan nan nan nan nan nan nan nan nan nan nan nan nan nan 185 249 304 304 311 339 13 36 42 33 26 26 28 23 20 13 2 352 342 338 348 355 356 5 37 22 14 358 26 23 46 168 188 183 178 160 147 141 140 124 105 100 99 100 103 106 102 101 103 102 100 95 89 85 84 80 82 87 95 94 98 96 93 88 87 87 83 82 84 89 87 84 82 80 86 89 88 92 91
nan nan nan nan nan nan nan nan nan nan nan nan nan nan nan nan nan 197 208 237 260 287 308 339 38 48 51 43 34 27 24 22 26 26 11 357 346 337 337 334 334 351 7 15 358 28 77 150 165 187 191 180 179 167 159 154 138 127 117 108 101 103 104 101 104 104 104 103 100 94 90 84 83 83 84 91 95 97 95 93 92 95 92 90 89 84 81 80 80 78 80 81 83 84 89 94 94
nan nan nan nan nan nan nan nan nan nan nan nan nan nan nan nan nan 206 232 293 308 322 332 338 38 53 52 50 41 30 24 25 24 25 25 16 355 337 338 315 318 332 289 313 5 15 28 155 192 187 189 187 189 176 162 151 145 133 122 108 104 100 106 96 104 105 103 103 100 96 89 84 83 84 88 91 93 91 90 89 93 94 97 94 93 88 80 79 76 76 79 82 87 88 89 93 91
nan nan nan nan nan nan nan nan nan nan nan nan nan nan nan nan nan 231 246 316 314 315 340 343 2 45 51 58 47 34 28 25 24 26 29 27 14 356 341 326 316 320 315 306 334 338 29 179 192 185 207 196 190 187 175 157 142 135 120 107 107 101 105 105 105 104 104 104 101 96 90 87 86 90 92 91 89 86 84 86 91 97 94 93 93 85 82 79 83 86 87 86 93 94 90 92 94
nan nan nan nan nan nan nan nan nan nan nan nan nan nan nan nan 212 233 260 319 331 291 329 352 359 12 40 61 56 40 28 26 25 26 28 29 28 14 354 322 315 320 291 283 312 321 268 193 197 183 298 211 199 194 188 172 162 137 119 109 102 103 104 104 104 106 107 105 102 98 92 91 94 96 95 90 85 82 81 85 93 93 93 86 86 84 82 84 81 83 92 90 88 93 94 92 95
nan nan nan nan nan nan nan nan nan nan nan nan nan nan nan nan 229 247 250 312 248 236 320 359 358 18 37 63 62 45 32 26 26 24 23 24 25 15 2 339 318 296 272 286 297 301 290 201 185 177 184 200 202 199 195 185 162 146 129 115 111 103 100 104 107 108 107 108 104 98 93 94 100 102 99 91 84 81 79 81 86 89 91 85 81 75 84 83 84 78 81 94 96 88 nan nan nan
nan nan nan nan nan nan nan nan nan nan nan nan nan nan nan nan 220 240 258 223 217 230 264 315 340 32 45 64 68 53 38 30 29 23 19 20 18 13 2 349 330 304 255 282 277 268 242 205 190 184 192 192 198 202 200 193 179 160 145 123 111 107 109 109 110 111 110 110 107 97 94 96 102 103 98 88 79 80 76 76 77 79 85 87 86 87 79 76 86 81 68 90 nan nan nan nan nan
nan nan nan nan nan nan nan nan nan nan nan nan nan nan nan nan 218 214 226 227 208 216 222 212 190 94 60 61 71 64 47 35 27 20 16 18 18 11 2 348 339 312 254 248 264 272 272 233 197 189 191 196 202 200 200 194 185 160 133 135 126 116 116 114 114 113 116 113 109 101 94 96 99 100 96 88 78 75 71 69 68 74 78 86 84 85 80 70 71 99 73 79 nan 106 nan nan nan
nan nan nan nan nan nan nan nan nan nan nan nan nan nan nan nan 222 219 220 211 209 223 235 201 159 104 72 67 65 64 50 34 21 17 14 15 16 16 9 350 345 339 275 250 258 282 284 262 225 186 198 209 201 199 190 191 184 175 163 142 124 121 116 118 118 121 123 117 107 100 93 93 96 98 97 91 81 78 75 72 68 73 80 80 79 77 74 69 58 61 72 82 nan nan nan nan nan
nan nan nan nan nan nan nan nan nan nan nan nan nan nan nan nan nan 213 212 220 241 253 227 178 125 88 77 54 55 62 58 44 18 18 16 15 19 21 17 6 354 354 342 253 261 277 273 264 237 201 201 194 187 193 193 190 188 187 186 155 139 128 122 117 116 125 124 122 109 101 93 91 92 94 98 92 87 80 78 77 73 76 81 80 80 90 88 84 85 87 77 86 nan nan nan nan nan
nan nan nan nan nan nan nan nan nan nan nan nan nan nan nan nan nan 215 221 217 205 230 249 94 91 87 85 68 56 61 64 45 25 20 16 18 19 22 23 17 9 6 342 269 219 240 259 256 225 211 194 196 191 194 199 197 198 198 196 176 133 139 133 124 121 123 123 118 110 102 95 90 89 94 97 96 90 88 85 79 77 83 84 86 83 81 83 81 90 88 80 80 nan nan 85 nan nan
nan nan nan nan nan nan nan nan nan nan nan nan nan nan nan nan nan 224 209 185 181 181 162 178 161 84 77 66 58 61 59 48 31 20 18 16 18 21 24 21 14 6 348 296 239 254 236 237 222 212 202 198 199 201 203 206 212 211 202 191 156 130 125 143 139 144 131 124 112 109 102 90 87 90 95 99 101 95 91 85 86 88 88 86 79 78 80 79 87 98 95 93 nan nan nan nan 87
nan nan nan nan nan nan nan nan nan nan nan nan nan nan nan nan nan nan 195 183 189 189 188 189 175 154 162 175 155 112 71 55 39 26 17 13 14 17 20 18 10 15 13 352 289 230 211 250 224 213 210 203 199 210 219 221 223 221 216 203 190 161 167 151 161 142 137 130 130 125 109 97 89 90 95 97 101 97 99 95 88 91 93 90 86 81 82 81 83 89 86 88 86 nan nan nan nan
nan nan nan nan nan nan nan nan nan nan nan nan nan nan nan nan nan nan nan 208 194 203 207 192 171 173 189 145 98 101 98 85 53 31 18 13 10 9 17 15 13 18 24 14 258 217 214 212 211 206 205 206 204 214 232 233 231 234 226 209 181 143 138 169 145 130 144 136 126 135 124 107 92 95 98 96 102 110 100 93 89 91 94 96 90 86 87 93 87 89 86 80 83 nan nan nan nan
nan nan nan nan nan nan nan nan nan nan nan nan nan nan nan nan nan nan nan 216 198 211 208 185 181 196 179 143 147 113 93 88 75 54 27 12 8 10 15 17 15 13 18 328 245 226 223 210 200 203 204 204 208 218 240 234 234 219 211 187 181 184 177 161 158 157 143 138 146 128 122 116 100 95 100 99 102 104 102 95 88 88 92 93 97 94 91 89 90 89 96 89 82 90 nan nan nan
nan nan nan nan nan nan nan nan nan nan nan nan nan nan nan nan nan nan nan nan 204 216 204 188 194 197 165 155 159 137 101 86 70 49 34 19 9 10 13 14 14 13 355 322 286 240 247 233 214 202 198 201 206 217 233 240 234 209 202 195 197 201 190 151 155 163 172 172 161 146 137 122 110 104 101 103 104 104 103 94 89 87 88 93 96 92 90 92 98 101 95 96 98 88 nan nan nan
nan nan nan nan nan nan nan nan nan nan nan nan nan nan nan nan nan nan nan nan nan 215 198 192 194 186 171 168 169 145 105 91 81 65 43 25 13 11 9 10 15 6 353 334 292 235 235 240 232 209 197 195 199 220 223 222 215 212 211 213 213 211 191 158 191 188 185 182 176 168 146 133 120 112 110 105 106 99 102 92 84 83 83 85 91 92 93 93 88 90 93 95 89 93 87 89 nan
nan nan nan nan nan nan nan nan nan nan nan nan nan nan nan nan nan nan nan nan nan nan 198 192 189 178 182 170 164 188 190 172 116 82 60 40 17 10 11 5 2 9 359 322 269 228 225 242 257 243 210 194 190 192 196 207 235 226 228 230 238 229 193 184 196 191 192 193 183 172 161 147 133 132 125 118 115 106 97 95 85 77 76 77 81 80 84 86 89 88 88 86 86 82 90 84 78
nan nan nan nan nan nan nan nan nan nan nan nan nan nan nan nan nan nan nan nan nan nan nan nan nan 189 191 167 166 202 219 215 130 104 80 58 14 8 12 10 6 0 355 331 283 247 236 257 287 283 246 208 189 168 180 176 212 224 238 255 265 263 208 199 194 188 196 192 185 187 171 152 147 135 142 129 116 105 100 97 91 85 82 79 76 71 74 77 81 80 83 87 85 77 77 76 85
nan nan nan nan nan nan nan nan nan nan nan nan nan nan nan nan nan nan nan nan nan nan nan nan nan nan 203 176 165 174 183 187 167 154 117 62 356 36 34 22 6 1 351 345 310 256 247 255 272 290 254 228 197 175 170 166 182 191 229 263 274 236 215 201 193 191 194 185 184 189 186 186 160 151 142 135 126 118 110 101 97 92 87 79 74 71 72 72 76 76 76 77 81 83 84 79 79
nan nan nan nan nan nan nan nan nan nan nan nan nan nan nan nan nan nan nan nan nan nan nan nan nan nan nan 159 139 165 169 184 202 181 176 222 29 46 39 24 12 4 356 350 337 287 254 258 286 296 272 246 213 193 174 166 167 177 214 247 241 191 186 200 198 196 201 194 190 193 196 179 183 160 145 137 129 117 114 102 97 91 87 81 75 69 67 65 66 67 66 66 68 70 74 74 78
nan nan nan nan nan nan nan nan nan nan nan nan nan nan nan nan nan nan nan nan nan nan nan nan nan nan nan nan 112 143 177 198 208 211 203 180 60 59 39 20 16 7 357 350 342 314 263 255 279 299 285 253 222 201 184 173 156 173 202 221 216 193 182 199 200 198 205 199 195 190 193 192 175 150 146 125 125 119 113 103 96 90 83 77 72 67 63 60 59 59 59 59 59 62 63 65 76
nan nan nan nan nan nan nan nan nan nan nan nan nan nan nan nan nan nan nan nan nan nan nan nan nan nan nan nan 155 153 172 183 198 214 214 159 86 52 30 18 14 8 359 349 340 325 282 269 283 299 280 254 235 209 194 175 172 180 196 207 207 194 190 198 196 200 207 204 193 197 196 192 167 141 126 127 124 113 107 103 95 89 82 76 71 67 65 59 56 56 55 55 57 53 51 52 64
nan nan nan nan nan nan nan nan nan nan nan nan nan nan nan nan nan nan nan nan nan nan nan nan nan nan nan nan nan nan nan 181 194 203 199 169 163 175 169 19 13 5 2 356 347 328 306 286 287 297 294 263 232 214 191 184 185 192 197 204 199 196 197 198 197 199 199 200 198 202 202 180 155 149 145 137 120 114 103 99 96 88 79 71 64 57 54 53 49 47 49 48 51 50 46 45 51
nan nan nan nan nan nan nan nan nan nan nan nan nan nan nan nan nan nan nan nan nan nan nan nan nan nan nan nan nan nan nan 189 190 190 190 179 186 186 154 6 3 3 5 6 351 331 314 285 279 290 287 261 238 218 202 193 195 199 197 198 195 193 197 199 196 195 195 197 201 201 200 172 165 158 147 136 124 111 104 97 90 86 73 64 54 47 41 39 35 39 40 38 44 43 41 43 42
nan nan nan nan nan nan nan nan nan nan nan nan nan nan nan nan nan nan nan nan nan nan nan nan nan nan nan nan nan nan nan nan 180 164 176 195 196 196 197 191 12 7 4 359 343 317 296 279 277 285 282 282 233 219 213 204 201 197 197 193 187 191 196 195 195 192 193 198 199 202 200 189 158 154 150 140 126 111 100 92 87 83 72 53 40 31 26 23 19 27 30 31 35 28 36 40 39
nan nan nan nan nan nan nan nan nan nan nan nan nan nan nan nan nan nan nan nan nan nan nan nan nan nan nan nan nan nan nan nan nan 181 190 198 198 203 205 35 17 353 332 334 313 300 284 271 267 280 292 282 244 213 209 205 202 197 197 190 186 190 195 197 194 191 193 192 195 199 193 174 173 170 156 143 130 113 100 82 75 76 62 45 20 12 5 6 7 12 14 21 17 15 26 36 37
nan nan nan nan nan nan nan nan nan nan nan nan nan nan nan nan nan nan nan nan nan nan nan nan nan nan nan nan nan nan nan nan nan 199 202 196 193 201 225 273 305 313 302 285 295 291 308 289 271 263 266 259 245 229 221 213 203 198 196 193 187 191 198 200 197 194 188 187 191 194 185 185 172 171 154 146 137 128 112 19 347 1 7 354 352 348 344 351 354 3 0 6 4 2 17 31 35
nan nan nan nan nan nan nan nan nan nan nan nan nan nan nan nan nan nan nan nan nan nan nan nan nan nan nan nan nan nan nan nan nan nan 212 200 198 210 212 221 235 235 231 239 255 299 300 278 275 273 273 267 256 245 236 220 213 202 199 194 191 194 197 199 197 191 186 188 192 191 188 181 189 171 165 155 141 138 266 318 322 330 326 336 336 334 328 329 343 350 353 356 349 357 11 24 25
nan nan nan nan nan nan nan nan nan nan nan nan nan nan nan nan nan nan nan nan nan nan nan nan nan nan nan nan nan nan nan nan nan nan 222 210 211 223 225 228 229 231 237 257 264 268 278 284 277 267 260 253 255 248 240 231 221 210 202 196 194 197 200 201 198 192 186 189 190 189 190 193 184 174 177 173 180 202 232 288 291 315 321 319 323 326 322 319 333 343 350 338 344 351 3 13 7